Skip Page Navigation
NASA JPL Caltech
NASA Logo - Jet Propulsion Laboratory + View the NASA Portal
+ Center for Near-Earth Object Studies
JPL Home Earth Solar System Stars & Galaxies Technology
JPL Solar System Dynamics
BODIES ORBITS EPHEMERIDES TOOLS PHYSICAL DATA DISCOVERY FAQ SITE MAP
IMPORTANT: The SSD Announcement email list is now available. Major changes are coming in the near future, including possible hostname and/or URL changes. To be notified of such changes, subscribe to this email list.

Please visit this page for more details.


JPL Small-Body Database Browser
Search: [ help ]  
277738 (2006 DK95)
Classification: Main-belt Asteroid          SPK-ID: 2277738
Ephemeris | Orbit Diagram | Orbital Elements | Mission Design | Physical Parameters | Discovery Circumstances | Close-Approach Data ]

[ show orbit diagram ]
Orbital Elements at Epoch 2458600.5 (2019-Apr-27.0) TDB
Reference: JPL 13 (heliocentric ecliptic J2000)
 Element Value Uncertainty (1-sigma)   Units 
e .04453847137164926 6.7524e-08  
a 2.750911558478281 2.982e-08 au
q 2.628390162785057 2.0035e-07 au
i 1.803067700255354 7.4645e-06 deg
node 166.9093790788245 0.00016368 deg
peri 334.9252465866925 0.00018117 deg
M 357.4677459879815 7.3942e-05 deg
tp 2458612.222443174213
(2019-May-08.72244317)
0.00034224 TDB
period 1666.53089409171
4.56
2.7098e-05
7.419e-08
d
yr
n .2160175975592739 3.5124e-09 deg/d
Q 2.873432954171505 3.1148e-08 au
  Orbit Determination Parameters
   # obs. used (total)      250  
   data-arc span      7028 days (19.24 yr)  
   first obs. used      1999-11-12  
   last obs. used      2019-02-08  
   planetary ephem.      DE431  
   SB-pert. ephem.      SB431-N16  
   condition code      0  
   norm. resid. RMS      .58529  
   source      ORB  
   producer      Otto Matic  
   solution date      2019-Jul-14 06:57:32  

Additional Information
 Earth MOID = 1.64136 au 
 Jupiter MOID = 2.11614 au 
 T_jup = 3.344 
[ show covariance matrix ]

Ephemeris | Orbit Diagram | Orbital Elements | Mission Design | Physical Parameters | Discovery Circumstances | Close-Approach Data ]

Physical Parameter Table
Parameter Symbol Value Units Sigma Reference Notes
absolute magnitude H 16.4   n/a MPO423066  

277738 (2006 DK95)          Discovered 2006-Feb-24 by Spacewatch at Kitt Peak
Reference: 20110517/Numbers.arcLast Updated: 2011-05-20

[ show close-approach data ]
Ephemeris | Orbit Diagram | Orbital Elements | Mission Design | Physical Parameters | Discovery Circumstances | Close-Approach Data ]
ABOUT SSD CREDITS/AWARDS PRIVACY/COPYRIGHT GLOSSARY LINKS
FirstGov 2019-Dec-15 05:35 UT
(server date/time)  
NASA Home Page
Site Manager:   Ryan S. Park
Webmaster  Alan B. Chamberlin